This is the latest recevied weather packets stored in our database for station/object KC8TAI. If no packets are shown the sender has not sent any weather packets the latest 10 day(s).
| Time | Temp. | Humidity | Pressure | Rain* | Wind** | Luminosity | Snow |
|---|---|---|---|---|---|---|---|
| 1777655716 | 14.44° C | 48% | 1011.3 hPa | 0 mm | - | 698 W/m² | - |
| 1777647316 | 11.11° C | 64% | 1013.3 hPa | 0 mm | - | 414 W/m² | - |
| 1777646715 | 11.11° C | 67% | 1013.5 hPa | 0 mm | - | 354 W/m² | - |
| 1777645536 | 10° C | 75% | 1013.5 hPa | 0 mm | - | 492 W/m² | - |
| 1777641317 | 6.67° C | 96% | 1013.9 hPa | 0 mm | - | 415 W/m² | - |
| 1777640117 | 5.56° C | 99% | 1013.9 hPa | 0 mm | - | 453 W/m² | - |
| 1777639518 | 4.44° C | 99% | 1013.9 hPa | 0 mm | - | 379 W/m² | - |
| 1777636518 | 1.11° C | 99% | 1014.9 hPa | 0 mm | - | 122 W/m² | - |
| 1777634139 | 0° C | 99% | 1015.2 hPa | 0 mm | - | 49 W/m² | - |
| 1777619723 | 0.56° C | 98% | 1014.9 hPa | 0 mm | - | 0 W/m² | - |
| 1777613145 | 1.11° C | 98% | 1015.7 hPa | 0 mm | - | 0 W/m² | - |
| 1777611336 | 1.67° C | 97% | 1015.7 hPa | 0 mm | - | 0 W/m² | - |
| 1777610717 | 1.67° C | 97% | 1015.8 hPa | 0 mm | - | 0 W/m² | - |
| 1777610117 | 1.67° C | 97% | 1015.8 hPa | 0 mm | - | 0 W/m² | - |
| 1777605918 | 2.22° C | 96% | 1015.9 hPa | 0 mm | - | 0 W/m² | - |
| 1777601116 | 3.89° C | 94% | 1015.6 hPa | 0 mm | - | 0 W/m² | - |
| 1777597517 | 6.11° C | 89% | 1014.9 hPa | 0.25 mm | - | 0 W/m² | - |
| 1777595718 | 7.78° C | 82% | 1015 hPa | 0 mm | - | 0 W/m² | - |
| 1777594558 | 7.78° C | 80% | 1014.3 hPa | 0 mm | - | 1 W/m² | - |
| 1777589116 | 9.44° C | 69% | 1013.7 hPa | 0 mm | - | 95 W/m² | - |
| 1777586117 | 9.44° C | 71% | 1013.7 hPa | 0 mm | - | 189 W/m² | - |
| 1777583118 | 8.89° C | 73% | 1013.6 hPa | 0 mm | - | 152 W/m² | - |
| 1777578917 | 8.33° C | 77% | 1013.5 hPa | 0 mm | - | 229 W/m² | - |
| 1777574118 | 10° C | 80% | 1012.8 hPa | 0.25 mm | - | 340 W/m² | - |
| 1777573518 | 10° C | 82% | 1012.3 hPa | 0.51 mm | - | 838 W/m² | - |
* Rain latest hour (hover to see other rain measurements)
** Current wind speed in m/s (hover to see current wind gust speed)